Simultaneous Nadir Overpasses (SNOs) Predictions

Prediction of SNOs between GOES-17 and NOAA-20 Satellite Orbit:

Table of predicted SNOs for the next 14.0 days since TLE Epoch: 4/23/2022
Index Date Time (GOES-17) GOES-17 Lat,Lon NOAA-20 Lat,Lon Distance(km) Time Diff (sec)
1 04/23/2022 22:49:49 0.03,-137.19 -0.72,-140.62 390.59 80
2 04/24/2022 22:28:24 0.03,-137.19 0.27,-136.08 126.04 80
3 04/26/2022 10:52:52 -0.02,-137.19 0.91,-141.35 473.80 80
4 04/27/2022 10:31:28 -0.02,-137.19 -0.09,-136.81 42.74 80
5 04/29/2022 22:37:21 0.02,-137.19 -0.07,-137.59 45.27 80
6 04/30/2022 22:15:56 0.02,-137.19 0.93,-133.05 470.86 80
7 05/02/2022 10:40:25 -0.02,-137.18 0.25,-138.32 130.03 80
8 05/03/2022 10:19:00 -0.02,-137.17 -0.75,-133.78 385.63 80
9 05/04/2022 22:43:37 0.02,-137.16 -0.40,-139.09 220.17 80
10 05/05/2022 22:24:53 0.02,-137.15 0.61,-134.56 295.16 80
